West Palm Beach, FL

11:52 AM EST on December 12, 2019 (GMT -0500)
Palm Beach International

Weather History for KPBI - November, 2019

Change the Weather History Date:

Tuesday, November 19, 2019

  Actual Average Record
Temperature  
Mean Temperature 68 °F 72 °F  
Max Temperature 78 °F 80 °F 88 °F (1902)
Min Temperature 57 °F 65 °F 40 °F (1923)
Degree Days  
Heating Degree Days 0 0  
Month to date heating degree days 5 0  
Since 1 July heating degree days 5 1  
Cooling Degree Days 3 8  
Month to date cooling degree days 208 169  
Year to date cooling degree days 4438 3790  
Growing Degree Days 18 (Base 50)    
Moisture  
Dew Point 57 °F    
Average Humidity 70    
Maximum Humidity 93    
Minimum Humidity 47    
Precipitation  
Precipitation 0.00 in 0.14 in 1.80 in (1987)
Month to date precipitation 3.10 3.30  
Year to date precipitation 56.49 57.50  
Snow  
Snow 0.00 in - - ()
Month to date snowfall 0.0  
Since 1 July snowfall 0.0  
Since 1 September snowfall 0.0  
Snow Depth 0.00 in    
Sea Level Pressure  
Sea Level Pressure 29.94 in    
Wind  
Wind Speed 6 mph (WNW)    
Max Wind Speed 17 mph    
Max Gust Speed 21 mph    
Visibility 10 miles    
Events      
T = Trace of Precipitation, MM = Missing Value Source: NWS Daily Summary

Daily Weather History Graph

Daily Weather History Graph

Search for Another Location

Airport or City:

Astronomy

Nov. 19, 2019 Rise Set
Actual Time 6:42 AM EST 5:28 PM EST
Civil Twilight 6:17 AM EST 5:53 PM EST
Nautical Twilight 5:49 AM EST 6:21 PM EST
Astronomical Twilight 5:22 AM EST 6:49 PM EST
Moon No Moon Rise 12:55 PM EST (11/19)
Length of Visible Light 11h 35m
Length of Day
10h 46m
Waning Gibbous, 52% of the Moon is Illuminated
Nov 19
Waning Gibbous
Nov 19
Last Quarter
Nov 26
New
Dec 4
First Quarter
Dec 12
Full

Hourly Weather History & Observations

Time (EST) Temp. Dew Point Humidity Pressure Visibility Wind Dir Wind Speed Gust Speed Precip Events Conditions
12:53 AM 61.0 °F 57.0 °F 87% 29.88 in 10.0 mi Calm Calm - N/A   Partly Cloudy
1:53 AM 60.1 °F 57.0 °F 90% 29.88 in 10.0 mi Calm Calm - N/A   Partly Cloudy
2:53 AM 59.0 °F 55.9 °F 90% 29.88 in 10.0 mi Calm Calm - N/A   Partly Cloudy
3:53 AM 59.0 °F 55.9 °F 90% 29.89 in 10.0 mi SW 4.6 mph - N/A   Partly Cloudy
4:53 AM 57.0 °F 55.0 °F 93% 29.90 in 10.0 mi West 3.5 mph - N/A   Partly Cloudy
5:53 AM 59.0 °F 57.0 °F 93% 29.91 in 10.0 mi Calm Calm - N/A   Mostly Cloudy
6:53 AM 61.0 °F 57.9 °F 90% 29.93 in 9.0 mi SW 3.5 mph - N/A   Mostly Cloudy
7:53 AM 64.0 °F 60.1 °F 87% 29.95 in 10.0 mi Calm Calm - N/A   Scattered Clouds
8:53 AM 69.1 °F 62.1 °F 78% 29.96 in 10.0 mi Calm Calm - N/A   Partly Cloudy
9:53 AM 73.0 °F 60.1 °F 64% 29.96 in 10.0 mi SW 5.8 mph - N/A   Partly Cloudy
10:53 AM 75.2 °F 60.8 °F 61% 29.94 in 10.0 mi WSW 5.8 mph - N/A   Scattered Clouds
11:53 AM 77.0 °F 60.1 °F 56% 29.93 in 10.0 mi West 9.2 mph - N/A   Scattered Clouds
12:53 PM 75.9 °F 57.9 °F 54% 29.91 in 10.0 mi West 11.5 mph - N/A   Scattered Clouds
1:53 PM 78.1 °F 57.9 °F 50% 29.91 in 10.0 mi NW 11.5 mph - N/A   Scattered Clouds
2:53 PM 77.0 °F 57.0 °F 50% 29.91 in 10.0 mi WNW 10.4 mph - N/A   Scattered Clouds
3:53 PM 77.0 °F 55.9 °F 48% 29.92 in 10.0 mi WNW 13.8 mph - N/A   Scattered Clouds
4:53 PM 73.9 °F 57.0 °F 55% 29.94 in 10.0 mi NW 6.9 mph - N/A   Scattered Clouds
5:53 PM 71.1 °F 55.9 °F 59% 29.96 in 10.0 mi NW 8.1 mph - N/A   Scattered Clouds
6:53 PM 68.0 °F 57.0 °F 68% 29.98 in 10.0 mi NNW 10.4 mph - N/A   Scattered Clouds
7:53 PM 68.0 °F 55.0 °F 63% 30.01 in 10.0 mi NNW 10.4 mph - N/A   Scattered Clouds
8:53 PM 64.9 °F 53.1 °F 65% 30.03 in 10.0 mi NW 9.2 mph - N/A   Partly Cloudy
9:53 PM 62.1 °F 52.0 °F 70% 30.04 in 10.0 mi NW 6.9 mph - N/A   Partly Cloudy
10:53 PM 60.1 °F 50.0 °F 69% 30.04 in 10.0 mi NNW 8.1 mph - N/A   Clear
11:53 PM 57.0 °F 48.9 °F 74% 30.04 in 10.0 mi NW 5.8 mph - N/A   Clear